Flag for Spain Weather past 2 weeks in Bilbao, Spain

Now
63 °F

Broken clouds.


Feels Like: 63 °F
Forecast: 55 / 62 °F
Wind: 15 mph from North

Location: Bilbao / Sondica

Current Time: May 25, 2015 at 6:12:58 PM

Latest Report: May 25, 2015 at 5:30 PM


Visibility: N/A

Pressure: 30.21 "Hg

Humidity: 77%

Dew point: 55 °F

Location of BilbaoLocation

Historic Weather in Bilbao — Graph

°F

Bilbao temperature yesterday

Maximum temperature yesterday: 63 °F (at 3:00 PM)
Minimum temperature yesterday: 57 °F (at 5:00 AM)
Average temperature yesterday: 60 °F

Past Weeks' High & Low Weather Summary

 TemperatureHumidityPressure
High95 °F (May 10, 4:30 PM)100% (May 13, 5:00 AM)30.51 "Hg (May 13, 5:00 AM)
Low48 °F (May 18, 5:00 AM)23% (May 10, 5:00 PM)30.04 "Hg (May 10, 4:30 PM)
Average59 °F82%30.24 "Hg
* Reported May 10 4:00 PM — May 25 4:30 PM, Bilbao, Weather by CustomWeather, © 2015

Note: Actual official high and low records may vary slightly from our data, if they occured in-between our weather recording intervals... More about our weather records

Advertising

Bilbao weather history for previous 24 hours

 ConditionsComfort  
Time TempWeatherWind HumidityBarometerVisibility
4:30 PM
Mon, May 25
64 °FBroken clouds.10 mph68%30.21 "HgN/A
4:00 PM64 °FBroken clouds.14 mph68%30.21 "HgN/A
3:30 PM64 °FBroken clouds.12 mph68%30.21 "HgN/A
3:00 PM63 °FBroken clouds.10 mph77%30.21 "HgN/A
2:30 PM63 °FBroken clouds.12 mph77%30.24 "HgN/A
2:00 PM64 °FBroken clouds.12 mph73%30.24 "HgN/A
1:30 PM63 °FBroken clouds.9 mph77%30.24 "HgN/A
1:00 PM63 °FBroken clouds.9 mph77%30.24 "HgN/A
12:00 PM63 °FBroken clouds.8 mph77%30.24 "HgN/A
11:30 AM61 °FBroken clouds.8 mph83%30.24 "HgN/A
11:00 AM61 °FPartly sunny.6 mph83%30.24 "HgN/A
10:30 AM61 °FBroken clouds.8 mph83%30.24 "HgN/A
10:00 AM61 °FBroken clouds.6 mph83%30.24 "HgN/A
9:30 AM59 °FBroken clouds.6 mph88%30.24 "HgN/A
9:00 AM61 °FBroken clouds.6 mph83%30.21 "HgN/A
8:30 AM61 °FBroken clouds.1 mph83%30.21 "HgN/A
8:00 AM59 °FBroken clouds.1 mph94%30.21 "HgN/A
7:30 AM59 °FPartly cloudy.1 mph88%30.21 "HgN/A
7:00 AM59 °FPartly cloudy.1 mph88%30.21 "HgN/A
6:30 AM59 °FPartly cloudy.3 mph88%30.21 "HgN/A
5:30 AM59 °FPartly cloudy.5 mph94%30.18 "HgN/A
5:00 AM59 °FPartly cloudy.5 mph94%30.18 "HgN/A
11:30 PM
Sun, May 24
61 °FPartly cloudy.7 mph88%30.21 "HgN/A
11:00 PM61 °FPartly cloudy.7 mph94%30.21 "HgN/A
10:30 PM61 °FBroken clouds.8 mph88%30.18 "HgN/A
10:00 PM61 °FBroken clouds.8 mph88%30.18 "HgN/A
9:30 PM61 °FBroken clouds.8 mph88%30.18 "HgN/A
9:00 PM61 °FBroken clouds.8 mph88%30.18 "HgN/A
8:30 PM61 °FBroken clouds.7 mph88%30.18 "HgN/A
8:00 PM61 °FBroken clouds.9 mph88%30.18 "HgN/A
7:30 PM61 °FBroken clouds.9 mph88%30.18 "HgN/A
7:00 PM63 °FBroken clouds.10 mph83%30.18 "HgN/A
6:30 PM63 °FBroken clouds.9 mph83%30.18 "HgN/A
6:00 PM61 °FBroken clouds.10 mph88%30.18 "HgN/A
Weather by CustomWeather, © 2015

See weather overviewHow to use our weather pages